DLY469 EDMO-LIML

Flight info

Callsign DLY469
Flight time 1h 0m
Altitude 23000
Route ATMAX2R ATMAX Y740 TIRUL M738 NATAG/N0396F190 M738 LORLO Y740 ATPED M984 LUSIL
Aircraft CL60/M-SBDE1E2E3FGHIJ1J4J5J7M3RWXYZ/LB1V1D1

Departure

Time 2026-05-04 16:31
Airport Oberpfaffenhofen Airport (EDMO)

Arrival

Time 2026-05-04 17:31
Airport Milano Linate Airport (LIML)
Time Latitude Longitude Altitude Speed Heading
2026-05-04 16:12 48.08862 11.28575 1901 ft 0 kts 221°
2026-05-04 16:28 48.08818 11.28703 1902 ft 13 kts 78°
2026-05-04 16:29 48.08861 11.29045 1899 ft 0 kts 89°
2026-05-04 16:30 48.08841 11.29246 1901 ft 7 kts 158°
2026-05-04 16:31 48.08576 11.28910 1907 ft 88 kts 224°
2026-05-04 16:31 48.05904 11.25362 3050 ft 214 kts 221°
2026-05-04 16:32 48.02369 11.20523 5104 ft 256 kts 222°
2026-05-04 16:33 47.99737 11.16854 6463 ft 260 kts 224°
2026-05-04 16:33 47.98313 11.12025 7832 ft 265 kts 257°
2026-05-04 16:34 47.97552 11.06666 9360 ft 265 kts 255°
2026-05-04 16:34 47.97168 11.03997 10140 ft 267 kts 255°
2026-05-04 16:35 47.95998 10.95885 12575 ft 271 kts 255°
2026-05-04 16:35 47.94803 10.87647 15120 ft 274 kts 255°
2026-05-04 16:36 47.94399 10.84873 15971 ft 277 kts 255°
2026-05-04 16:36 47.93578 10.79262 17717 ft 281 kts 255°
2026-05-04 16:37 47.91527 10.74523 19491 ft 282 kts 214°
2026-05-04 16:37 47.89766 10.73319 20362 ft 284 kts 201°
2026-05-04 16:37 47.86012 10.71411 22112 ft 284 kts 201°
2026-05-04 16:38 47.82212 10.69461 22987 ft 306 kts 201°
2026-05-04 16:39 47.75951 10.66257 23010 ft 313 kts 201°
2026-05-04 16:39 47.71876 10.64177 23013 ft 311 kts 201°
2026-05-04 16:40 47.67789 10.62093 23015 ft 310 kts 201°
2026-05-04 16:40 47.63707 10.60013 23033 ft 309 kts 201°
2026-05-04 16:41 47.59658 10.57954 23049 ft 310 kts 201°
2026-05-04 16:41 47.53532 10.54843 23050 ft 310 kts 201°
2026-05-04 16:42 47.47332 10.51702 23081 ft 329 kts 201°
2026-05-04 16:43 47.42694 10.49352 23089 ft 374 kts 200°
2026-05-04 16:43 47.37310 10.48324 23089 ft 416 kts 177°
2026-05-04 16:43 47.34398 10.48760 23089 ft 432 kts 176°
2026-05-04 16:44 47.21837 10.50577 23108 ft 462 kts 176°
2026-05-04 16:45 47.15425 10.51498 23106 ft 464 kts 176°
2026-05-04 16:46 47.05796 10.52962 23105 ft 466 kts 172°
2026-05-04 16:46 46.99567 10.55640 23111 ft 468 kts 165°
2026-05-04 16:47 46.93332 10.58475 23123 ft 468 kts 165°
2026-05-04 16:47 46.87147 10.61277 23124 ft 468 kts 165°
2026-05-04 16:48 46.77769 10.65509 23123 ft 468 kts 165°
2026-05-04 16:48 46.74660 10.66721 23129 ft 466 kts 172°
2026-05-04 16:49 46.68723 10.66262 23120 ft 461 kts 196°
2026-05-04 16:49 46.62559 10.63566 23123 ft 461 kts 198°
2026-05-04 16:50 46.56449 10.60887 23117 ft 461 kts 198°
2026-05-04 16:50 46.50286 10.58190 23106 ft 461 kts 198°
2026-05-04 16:51 46.44146 10.55509 23115 ft 461 kts 198°
2026-05-04 16:51 46.41075 10.54171 23121 ft 461 kts 198°
2026-05-04 16:51 46.34893 10.51481 23126 ft 461 kts 198°
2026-05-04 16:52 46.28794 10.48833 23131 ft 461 kts 198°
2026-05-04 16:52 46.25715 10.47499 23134 ft 461 kts 198°
2026-05-04 16:53 46.19561 10.44697 23131 ft 460 kts 204°
2026-05-04 16:53 46.12742 10.35482 23013 ft 462 kts 242°
2026-05-04 16:54 46.11261 10.31314 22532 ft 463 kts 242°
2026-05-04 16:55 46.05534 10.15214 20613 ft 447 kts 239°
2026-05-04 16:55 46.01251 10.08928 19649 ft 446 kts 213°
2026-05-04 16:56 45.95969 10.04241 18735 ft 439 kts 212°
2026-05-04 16:56 45.88401 9.97536 17351 ft 420 kts 212°
2026-05-04 16:57 45.85924 9.95345 16896 ft 417 kts 212°
2026-05-04 16:57 45.81034 9.91027 15977 ft 409 kts 212°
2026-05-04 16:58 45.73939 9.84773 14626 ft 382 kts 211°
2026-05-04 16:58 45.71686 9.82791 14156 ft 369 kts 211°
2026-05-04 16:59 45.67459 9.79074 13199 ft 348 kts 211°
2026-05-04 17:00 45.59826 9.71746 11197 ft 323 kts 213°
2026-05-04 17:00 45.54436 9.66385 9477 ft 305 kts 213°
2026-05-04 17:01 45.51054 9.63024 8491 ft 286 kts 213°
2026-05-04 17:01 45.47856 9.59853 7730 ft 277 kts 213°
2026-05-04 17:02 45.44722 9.56750 6986 ft 271 kts 214°
2026-05-04 17:02 45.41641 9.53705 6248 ft 271 kts 214°
2026-05-04 17:03 45.40106 9.52189 6000 ft 269 kts 214°
2026-05-04 17:03 45.38581 9.50683 5959 ft 261 kts 214°
2026-05-04 17:03 45.35674 9.47816 5961 ft 251 kts 214°
2026-05-04 17:04 45.32799 9.44985 5959 ft 251 kts 214°
2026-05-04 17:04 45.29594 9.43492 5960 ft 246 kts 176°
2026-05-04 17:05 45.26159 9.43878 5997 ft 248 kts 175°
2026-05-04 17:05 45.22716 9.44252 5999 ft 247 kts 175°
2026-05-04 17:06 45.19281 9.44625 5847 ft 250 kts 175°
2026-05-04 17:06 45.17547 9.44813 5451 ft 251 kts 175°
2026-05-04 17:07 45.14422 9.43133 4562 ft 252 kts 235°
2026-05-04 17:07 45.13925 9.41673 4236 ft 251 kts 257°
2026-05-04 17:07 45.13750 9.38429 3609 ft 247 kts 270°
2026-05-04 17:07 45.13725 9.36015 3198 ft 242 kts 270°
2026-05-04 17:08 45.13772 9.33701 3019 ft 225 kts 283°
2026-05-04 17:08 45.15582 9.30879 3014 ft 190 kts 347°
2026-05-04 17:08 45.16840 9.30662 3028 ft 182 kts 354°
2026-05-04 17:09 45.18137 9.30530 3008 ft 186 kts 354°
2026-05-04 17:09 45.19421 9.30396 3001 ft 186 kts 354°
2026-05-04 17:09 45.20725 9.30258 3003 ft 187 kts 354°
2026-05-04 17:10 45.23328 9.29979 3005 ft 188 kts 354°
2026-05-04 17:10 45.27232 9.29562 3006 ft 180 kts 354°
2026-05-04 17:11 45.28479 9.29429 2971 ft 177 kts 354°
2026-05-04 17:11 45.29696 9.29298 2945 ft 178 kts 354°
2026-05-04 17:11 45.32140 9.29036 2511 ft 169 kts 354°
2026-05-04 17:12 45.33286 9.28914 2288 ft 165 kts 354°
2026-05-04 17:12 45.35569 9.28669 1861 ft 162 kts 353°
2026-05-04 17:13 45.38596 9.28349 1332 ft 132 kts 354°
2026-05-04 17:14 45.41369 9.28055 780 ft 131 kts 355°
2026-05-04 17:14 45.42292 9.27957 597 ft 133 kts 354°
2026-05-04 17:14 45.44074 9.27771 352 ft 118 kts 351°
2026-05-04 17:15 45.44885 9.27679 420 ft 133 kts 357°
2026-05-04 17:15 45.46995 9.27550 1956 ft 185 kts 354°
2026-05-04 17:16 45.49878 9.27363 3452 ft 214 kts 359°
2026-05-04 17:16 45.54478 9.27125 4926 ft 250 kts 358°
2026-05-04 17:17 45.56239 9.27015 5009 ft 250 kts
2026-05-04 17:17 45.59377 9.31790 5030 ft 245 kts 86°
2026-05-04 17:18 45.59470 9.34218 5024 ft 246 kts 87°
2026-05-04 17:18 45.59076 9.39000 5020 ft 246 kts 125°
2026-05-04 17:19 45.56036 9.40749 5031 ft 247 kts 175°
2026-05-04 17:19 45.52597 9.41099 5014 ft 247 kts 175°
2026-05-04 17:20 45.49157 9.41464 4898 ft 248 kts 175°
2026-05-04 17:20 45.45741 9.41826 4649 ft 245 kts 175°
2026-05-04 17:20 45.44025 9.42007 4526 ft 245 kts 175°
2026-05-04 17:21 45.40621 9.42368 4282 ft 246 kts 175°
2026-05-04 17:21 45.37188 9.42733 4032 ft 246 kts 175°
2026-05-04 17:22 45.35480 9.42914 3908 ft 247 kts 175°
2026-05-04 17:22 45.33765 9.43096 3788 ft 247 kts 175°
2026-05-04 17:23 45.28640 9.43639 3409 ft 243 kts 176°
2026-05-04 17:23 45.26962 9.43817 3289 ft 242 kts 176°
2026-05-04 17:23 45.23613 9.44046 3036 ft 238 kts 190°
2026-05-04 17:24 45.22053 9.43253 3013 ft 236 kts 205°
2026-05-04 17:24 45.17959 9.39515 3019 ft 237 kts 245°
2026-05-04 17:25 45.17718 9.37248 3018 ft 236 kts 281°
2026-05-04 17:25 45.19354 9.33252 3022 ft 237 kts 306°
2026-05-04 17:26 45.21700 9.30131 3018 ft 229 kts 346°
2026-05-04 17:26 45.26071 9.29688 2992 ft 205 kts 354°
2026-05-04 17:27 45.28947 9.29378 3012 ft 209 kts 354°
2026-05-04 17:27 45.31648 9.29091 2594 ft 180 kts 354°
2026-05-04 17:28 45.34085 9.28828 2143 ft 174 kts 354°
2026-05-04 17:29 45.37498 9.28464 1504 ft 152 kts 353°
2026-05-04 17:29 45.40353 9.28157 965 ft 130 kts 353°
2026-05-04 17:30 45.43080 9.27863 452 ft 132 kts 354°
2026-05-04 17:31 45.44647 9.27687 352 ft 67 kts 354°
2026-05-04 17:31 45.45018 9.27374 352 ft 5 kts 304°
2026-05-04 17:32 45.45084 9.27206 350 ft 18 kts 293°
2026-05-04 17:33 45.45176 9.26691 352 ft 15 kts 293°
2026-05-04 17:33 45.45222 9.26548 355 ft 16 kts 294°
2026-05-04 17:34 45.45293 9.26299 360 ft 1 kts 250°
2026-05-04 17:34 45.45291 9.26289 360 ft 0 kts 253°
2026-05-04 17:35 45.45302 9.26288 360 ft 0 kts 66°